Truth Or Consequences, NM

11:01 PM MDT on July 27, 2017 (GMT -0600)
Truth Or Consequences Municipal

Weather History for KTCS - November, 2012

Change the Weather History Date:

Wednesday, November 7, 2012

  Actual Average Record
Temperature  
Mean Temperature 61 °F -  
Max Temperature 79 °F 66 °F 79 °F (2012)
Min Temperature 42 °F 39 °F 27 °F (2000)
Degree Days  
Heating Degree Days 4    
Month to date heating degree days 28  
Since 1 July heating degree days 114  
Growing Degree Days 10 (Base 50)    
Moisture  
Dew Point 20 °F    
Average Humidity 25    
Maximum Humidity 39    
Minimum Humidity 10    
Precipitation  
Precipitation 0.00 in - 0.26 in (2000)
Month to date precipitation 0.00  
Year to date precipitation 2.59  
Sea Level Pressure  
Sea Level Pressure 29.99 in    
Wind  
Wind Speed 5 mph (SW)    
Max Wind Speed 16 mph    
Max Gust Speed 21 mph    
Visibility 10 miles    
Events      
T = Trace of Precipitation, MM = Missing Value Source: NWS Daily Summary

Daily Weather History Graph

Daily Weather History Graph

Search for Another Location

Airport or City:

Trip Planner

Search our weather history database for the weather conditions in past years. The results will help you decide how hot, cold, wet, or windy it might be!

Date:

Astronomy

Nov. 07, 2012 Rise Set
Actual Time 6:33 AM MST 5:11 PM MST
Civil Twilight 6:07 AM MST 5:37 PM MST
Nautical Twilight 5:37 AM MST 6:07 PM MST
Astronomical Twilight 5:08 AM MST 6:36 PM MST
Moon No Moon Rise 1:03 PM MST (11/7)
Length of Visible Light 11h 30m
Length of Day
10h 38m
Last Quarter, 42% of the Moon is Illuminated
Nov 7
Last Quarter
Nov 13
New
Nov 20
First Quarter
Nov 28
Full
Dec 6
Last Quarter

Hourly Weather History & Observations

Time (MST) Temp. Windchill Dew Point Humidity Pressure Visibility Wind Dir Wind Speed Gust Speed Precip Events Conditions
12:53 AM 53.1 °F - 19.9 °F 27% 30.05 in 10.0 mi NW 6.9 mph - N/A   Clear
1:53 AM 48.0 °F - 19.9 °F 33% 30.06 in 10.0 mi NW 6.9 mph - N/A   Clear
2:53 AM 51.1 °F - 19.9 °F 29% 30.04 in 10.0 mi NNW 4.6 mph - N/A   Clear
3:53 AM 48.0 °F - 19.9 °F 33% 30.04 in 10.0 mi NW 6.9 mph - N/A   Clear
4:53 AM 48.0 °F - 19.9 °F 33% 30.05 in 10.0 mi NW 5.8 mph - N/A   Clear
5:53 AM 43.0 °F 41.3 °F 18.0 °F 37% 30.09 in 10.0 mi NNW 3.5 mph - N/A   Clear
6:53 AM 43.0 °F - 19.0 °F 38% 30.11 in 9.0 mi Calm Calm - N/A   Clear
7:53 AM 54.0 °F - 19.9 °F 26% 30.12 in 10.0 mi Calm Calm - N/A   Clear
8:53 AM 57.0 °F - 21.0 °F 25% 30.11 in 10.0 mi Calm Calm - N/A   Clear
9:53 AM 63.0 °F - 21.9 °F 21% 30.09 in 10.0 mi Variable 3.5 mph - N/A   Clear
10:53 AM 66.0 °F - 23.0 °F 20% 30.06 in 10.0 mi ESE 5.8 mph - N/A   Clear
11:53 AM 70.0 °F - 23.0 °F 17% 30.01 in 10.0 mi SE 4.6 mph - N/A   Clear
12:53 PM 75.0 °F - 21.9 °F 14% 29.94 in 10.0 mi SSE 6.9 mph - N/A   Clear
1:53 PM 77.0 °F - 21.0 °F 12% 29.92 in 10.0 mi South 13.8 mph - N/A   Clear
2:53 PM 78.1 °F - 18.0 °F 10% 29.89 in 10.0 mi South 11.5 mph - N/A   Clear
3:53 PM 78.1 °F - 19.9 °F 11% 29.88 in 10.0 mi South 15.0 mph - N/A   Clear
4:53 PM 75.0 °F - 21.0 °F 13% 29.88 in 10.0 mi SE 5.8 mph - N/A   Clear
5:53 PM 70.0 °F - 21.0 °F 16% 29.91 in 10.0 mi SSE 6.9 mph - N/A   Clear
6:53 PM 66.9 °F - 18.0 °F 15% 29.94 in 10.0 mi SW 8.1 mph - N/A   Clear
7:53 PM 64.0 °F - 18.0 °F 17% 29.93 in 10.0 mi Calm Calm - N/A   Clear
8:53 PM 61.0 °F - 18.0 °F 19% 29.94 in 10.0 mi Calm Calm - N/A   Clear
9:53 PM 61.0 °F - 19.0 °F 20% 29.93 in 10.0 mi WSW 4.6 mph - N/A   Clear
10:53 PM 57.0 °F - 19.9 °F 24% 29.93 in 10.0 mi Calm Calm - N/A   Clear
11:53 PM 55.0 °F - 19.0 °F 24% 29.91 in 10.0 mi WNW 6.9 mph - N/A   Clear